N1MRE Weather Reports


time (UTC)temp
C
wind
direction
speed
KPH
gust
KPH
rain 1hr
cm
rain 24hr
cm
rain mn
cm
humidity
%
barometer
mb
20260505153104 23 269 8.0 30.6 0.00 0.00 0.00 44 1006.5
20260505151551 23 207 12.9 30.6 0.00 0.00 0.00 44 1006.9
20260505150108 22 207 9.7 27.4 0.00 0.00 0.00 46 1006.7
20260505140104 20 158 6.4 17.7 0.00 0.00 0.00 50 1006.6
20260505124611 15 0 3.2 11.3 0.00 0.00 0.00 62 1007.5
20260505123114 15 196 6.4 12.9 0.00 0.00 0.00 65 1007.4
20260505121556 13 177 3.2 12.9 0.00 0.00 0.00 68 1006.8
20260505120056 12 153 6.4 14.5 0.00 0.00 0.00 72 1006.7
20260505114600 12 0 3.2 9.7 0.00 0.00 0.00 74 1007.2
20260505113058 11 187 3.2 11.3 0.00 0.00 0.00 78 1007.4
20260505111558 10 157 1.6 12.9 0.00 0.00 0.00 81 1007.3
20260505101549 8 153 1.6 9.7 0.00 0.00 0.00 84 1007.4
20260505100100 8 0 0.0 4.8 0.00 0.00 0.00 84 1007.3
20260505094604 8 150 1.6 9.7 0.00 0.00 0.00 84 1007.3
20260505093056 8 172 3.2 8.0 0.00 0.00 0.00 83 1007.4
20260505091554 8 0 1.6 6.4 0.00 0.00 0.00 83 1007.3
20260505090105 8 0 1.6 8.0 0.00 0.00 0.00 83 1007.3
20260505084550 8 0 0.0 8.0 0.00 0.00 0.00 82 1007.5
20260505083106 8 0 0.0 9.7 0.00 0.00 0.00 82 1007.5
20260505081554 9 169 3.2 9.7 0.00 0.00 0.00 81 1007.7
20260505080056 9 184 3.2 11.3 0.00 0.00 0.00 79 1007.9
20260505074552 10 0 3.2 11.3 0.00 0.00 0.00 77 1007.8
20260505073057 10 158 1.6 11.3 0.00 0.00 0.00 76 1007.8
20260505071551 10 0 1.6 9.7 0.00 0.00 0.00 74 1007.7
20260505070057 11 180 4.8 14.5 0.00 0.00 0.00 73 1007.9
20260505064547 11 140 3.2 14.5 0.00 0.00 0.00 72 1008.0
20260505063051 11 159 4.8 14.5 0.00 0.00 0.00 72 1008.1
20260505061550 11 126 6.4 14.5 0.00 0.00 0.00 71 1008.2
20260505060051 11 168 3.2 14.5 0.00 0.00 0.00 71 1008.1
20260505054557 11 211 4.8 22.5 0.00 0.00 0.00 72 1008.1
20260505053053 11 157 3.2 14.5 0.00 0.00 0.00 70 1008.0
20260505051547 11 190 3.2 14.5 0.00 0.00 0.00 70 1007.8
20260505050125 11 151 4.8 11.3 0.00 0.00 0.00 72 1007.8
20260505041604 11 187 4.8 14.5 0.00 0.00 0.00 72 1007.6
20260505040059 11 172 3.2 14.5 0.00 0.00 0.00 74 1007.1
20260505034551 11 193 3.2 12.9 0.00 0.00 0.00 74 1007.0
20260505033050 11 184 3.2 11.3 0.00 0.00 0.00 76 1006.7
20260505031556 11 202 3.2 9.7 0.00 0.00 0.00 75 1006.8
20260505030055 11 173 1.6 8.0 0.00 0.00 0.00 76 1006.8
20260505024551 11 169 0.0 6.4 0.00 0.00 0.00 75 1007.0
20260505023054 11 164 1.6 6.4 0.00 0.00 0.00 74 1006.9
20260505021553 11 167 1.6 6.4 0.00 0.00 0.00 72 1006.9
20260505020054 12 177 0.0 8.0 0.00 0.00 0.00 70 1006.9
20260505014606 12 161 3.2 8.0 0.00 0.00 0.00 71 1006.9
20260505013054 12 0 0.0 4.8 0.00 0.00 0.00 66 1006.7
20260505011549 12 183 1.6 9.7 0.00 0.00 0.00 66 1006.5
20260505010055 12 171 1.6 8.0 0.00 0.00 0.00 65 1006.3
20260505004550 13 0 0.0 4.8 0.00 0.00 0.00 65 1006.1
20260505003053 13 175 3.2 8.0 0.00 0.00 0.00 61 1005.8
20260505001602 14 176 0.0 8.0 0.00 0.00 0.00 59 1005.6
20260505000131 15 167 0.0 8.0 0.00 0.00 0.00 55 1005.3
20260504234607 16 0 1.6 9.7 0.00 0.00 0.00 54 1005.2
20260504233105 16 189 3.2 14.5 0.00 0.00 0.00 52 1004.8
20260504231553 17 216 3.2 9.7 0.00 0.00 0.00 46 1004.8
20260504230056 18 0 3.2 14.5 0.00 0.00 0.00 45 1004.7
20260504224608 18 248 3.2 20.9 0.00 0.00 0.00 43 1004.6
20260504223054 18 240 3.2 17.7 0.00 0.00 0.00 39 1004.4
20260504221549 19 178 6.4 29.0 0.00 0.00 0.00 37 1004.4
20260504220051 19 244 9.7 33.8 0.00 0.00 0.00 37 1004.4
20260504214548 19 297 12.9 27.4 0.00 0.00 0.00 37 1004.4
20260504213121 20 254 8.0 27.4 0.00 0.00 0.00 40 1004.5
20260504211549 19 126 8.0 32.2 0.00 0.00 0.00 39 1004.4
20260504210055 19 271 11.3 25.7 0.00 0.00 0.00 40 1004.5
20260504204557 19 251 14.5 37.0 0.00 0.00 0.00 39 1004.4
20260504203117 19 267 1.6 19.3 0.00 0.00 0.00 43 1004.4
20260504201556 19 268 8.0 19.3 0.00 0.00 0.00 44 1004.6
20260504200053 20 278 6.4 20.9 0.00 0.00 0.00 40 1004.7
20260504194604 19 0 3.2 24.1 0.00 0.00 0.00 41 1004.9
20260504193105 18 157 9.7 24.1 0.00 0.00 0.00 46 1005.2
20260504191550 17 289 4.8 17.7 0.00 0.00 0.00 47 1005.3
20260504190105 16 242 11.3 25.7 0.00 0.00 0.00 51 1005.5
20260504184559 16 282 4.8 16.1 0.00 0.00 0.00 53 1005.6
20260504183051 15 237 4.8 14.5 0.00 0.00 0.00 53 1005.7
20260504181549 15 25 1.6 12.9 0.00 0.00 0.00 53 1005.8
20260504180051 15 13 4.8 12.9 0.00 0.00 0.00 54 1006.1
20260504174601 15 331 4.8 22.5 0.00 0.00 0.00 54 1006.0
20260504173056 15 322 6.4 30.6 0.00 0.00 0.00 51 1005.9
20260504171551 15 309 11.3 33.8 0.00 0.00 0.00 53 1006.0